Weather reports worldwide

Advertisment
Strasbourg, France (7190): temperature & dewpoint: 14.01.2021 14:00:00 - 20.01.2021 14:00:00 (CET)Strasbourg, France (7190): temperature 5cm: 14.01.2021 14:00:00 - 20.01.2021 14:00:00 (CET)Strasbourg, France (7190): temperature -20cm & temperature -100cm: 14.01.2021 14:00:00 - 20.01.2021 14:00:00 (CET)Strasbourg, France (7190): wind speed & gusts: 14.01.2021 14:00:00 - 20.01.2021 14:00:00 (CET)Strasbourg, France (7190): wind direction: 14.01.2021 14:00:00 - 20.01.2021 14:00:00 (CET)Strasbourg, France (7190): reduced air pressure: 14.01.2021 14:00:00 - 20.01.2021 14:00:00 (CET)Strasbourg, France (7190): visibility: 14.01.2021 14:00:00 - 20.01.2021 14:00:00 (CET)Strasbourg, France (7190): sunshine duration: 14.01.2021 14:00:00 - 20.01.2021 14:00:00 (CET)Strasbourg, France (7190): precipitation: 14.01.2021 14:00:00 - 20.01.2021 14:00:00 (CET)
Date & Time tt [°C] td [°C] tt 5cm [°C] tt -20cm [°C] tt -100cm [°C] ff [km/h] ff [kn] fx [km/h] fx [kn] dd ppp [hPa] vv [km] sd [min] rr [mm]
20.01.2021 14:00:00 6,2 -0,3 - - - 16 9 28 15 S 1005,7 35 - 0,0
20.01.2021 13:00:00 5,5 -0,4 5,4 1,7 5,6 14 8 23 12 SSW 1006,8 43 0 0,0
20.01.2021 12:00:00 5,2 -0,6 3,6 1,7 5,6 14 8 24 13 S 1008,0 49 0 0,0
20.01.2021 11:00:00 4,0 -0,8 3,5 1,7 5,6 15 8 25 14 S 1009,0 28 3 0,0
20.01.2021 10:00:00 4,1 -1,5 2,9 1,7 5,6 11 6 34 18 S 1009,4 43 0 0,0
20.01.2021 09:00:00 3,7 -1,7 1,7 1,7 5,6 17 9 27 14 SSW 1010,0 48 0 0,0
20.01.2021 08:00:00 3,8 -1,8 1,6 1,7 5,6 13 7 31 17 SSE 1010,6 59 0 0,0
20.01.2021 07:00:00 3,7 -1,7 1,4 1,7 5,6 19 10 29 16 S 1010,8 59 0 0,0
20.01.2021 06:00:00 2,4 -1,8 -0,7 1,7 5,6 11 6 26 14 SSW 1011,4 57 0 0,0
20.01.2021 05:00:00 1,1 -2,5 -0,9 1,7 5,6 4 2 27 14 SSE 1011,9 43 0 0,0
20.01.2021 04:00:00 2,3 -1,5 -1,2 1,7 5,6 16 9 24 13 S 1012,2 43 0 0,0
20.01.2021 03:00:00 1,5 -2,5 -0,2 1,7 5,6 11 6 24 13 S 1012,8 41 0 0,0
20.01.2021 02:00:00 2,8 -2,1 -0,7 1,7 5,6 17 9 27 14 S 1012,9 55 0 0,0
20.01.2021 01:00:00 1,4 -2,7 -1,4 1,7 5,6 8 4 20 11 ESE 1013,6 44 0 0,0
20.01.2021 00:00:00 1,7 -2,6 -1,0 1,7 5,6 15 8 24 13 S 1014,4 43 0 0,0
19.01.2021 23:00:00 2,2 -2,7 -0,9 1,7 5,6 6 3 19 10 SW 1014,9 59 0 0,0
19.01.2021 22:00:00 2,5 -3,0 -0,3 1,7 5,6 4 2 34 18 NNE 1014,9 43 0 0,0
19.01.2021 21:00:00 2,9 -2,6 1,1 1,8 5,6 7 4 27 15 SW 1015,3 56 0 0,0
19.01.2021 20:00:00 3,7 -2,5 2,0 1,8 5,6 15 8 30 16 S 1015,8 47 0 0,0
19.01.2021 19:00:00 4,2 -2,4 1,7 1,7 5,6 22 12 40 21 S 1015,8 57 0 0,0
19.01.2021 18:00:00 3,6 -2,2 1,9 1,7 5,6 10 5 23 12 S 1016,6 54 0 0,0
19.01.2021 17:00:00 3,9 -2,1 2,4 1,7 5,6 19 10 35 19 SSE 1016,6 47 38 0,0
19.01.2021 16:00:00 4,1 -1,3 2,1 1,8 5,7 21 11 35 19 S 1016,8 46 0 0,2
19.01.2021 15:00:00 4,2 -0,2 1,8 1,7 5,6 22 12 36 19 S 1016,9 49 0 0,0
19.01.2021 14:00:00 2,8 -1,0 2,1 1,7 5,6 15 8 29 15 S 1017,3 32 0 0,0
19.01.2021 13:00:00 2,4 -1,2 1,3 1,7 5,7 12 6 39 21 SSW 1018,3 24 0 0,0
19.01.2021 12:00:00 2,0 -1,6 1,8 1,7 5,7 24 13 42 23 S 1018,6 44 0 0,0
19.01.2021 11:00:00 1,5 -1,9 0,9 1,8 5,7 22 12 41 22 S 1019,5 44 0 0,0
19.01.2021 10:00:00 0,9 -2,3 0,1 1,7 5,7 23 13 37 20 S 1020,0 40 0 0,0
19.01.2021 09:00:00 0,5 -2,6 -0,9 1,8 5,7 19 11 32 17 S 1020,7 42 4 0,0
19.01.2021 08:00:00 0,2 -2,8 -0,7 1,7 5,7 20 11 33 18 S 1021,2 44 0 0,0
19.01.2021 07:00:00 0,6 -2,5 -0,2 1,8 5,7 22 12 36 19 S 1021,8 48 0 0,0
19.01.2021 06:00:00 0,4 -2,0 -0,8 1,7 5,7 24 13 35 19 S 1022,6 37 0 0,0
19.01.2021 05:00:00 -0,2 -2,4 -1,2 1,8 5,7 18 10 29 16 S 1023,6 34 0 0,0
19.01.2021 04:00:00 -0,3 -2,4 -2,2 1,7 5,7 15 8 27 15 S 1024,2 26 0 0,0
19.01.2021 03:00:00 0,1 -1,8 -1,2 1,7 5,7 18 10 26 14 S 1024,8 16 0 0,0
19.01.2021 02:00:00 0,0 -1,4 -2,6 1,8 5,7 12 7 23 12 S 1025,6 12 0 0,0
19.01.2021 01:00:00 -0,5 -2,1 -2,4 1,8 5,7 9 5 24 13 S 1026,4 11 0 0,0
19.01.2021 00:00:00 1,5 -1,1 -1,2 1,8 5,7 15 8 25 13 S 1026,5 18 0 0,0
18.01.2021 23:00:00 0,4 -1,7 -1,9 1,7 5,7 16 9 29 15 S 1026,7 23 0 0,0
18.01.2021 22:00:00 0,9 -1,2 -0,3 1,8 5,7 16 9 24 13 S 1027,1 20 0 0,0
18.01.2021 21:00:00 0,6 -1,0 -0,4 1,8 5,7 10 6 17 9 S 1027,5 19 0 0,0
18.01.2021 20:00:00 1,1 -0,7 -0,2 1,8 5,7 10 5 17 9 S 1027,6 16 0 0,0
18.01.2021 19:00:00 1,2 -1,0 0,0 1,8 5,7 10 6 16 9 S 1027,8 19 0 0,0
18.01.2021 18:00:00 1,8 -0,5 0,5 1,8 5,7 9 5 16 8 S 1027,3 23 0 0,0
18.01.2021 17:00:00 2,3 -0,3 1,4 1,8 5,7 11 6 25 14 S 1027,2 27 15 0,0
18.01.2021 16:00:00 2,6 -0,9 2,3 1,8 5,7 14 8 29 15 SSW 1026,8 41 48 0,0
18.01.2021 15:00:00 3,7 -0,3 4,0 1,8 5,7 15 8 24 13 SSW 1027,0 27 22 0,0
18.01.2021 14:00:00 3,4 0,3 1,0 1,8 5,7 8 4 18 10 S 1027,6 19 0 0,0
18.01.2021 13:00:00 3,2 0,6 0,3 1,8 5,8 8 4 18 10 SSW 1028,2 27 6 0,0
18.01.2021 12:00:00 2,7 0,8 0,3 1,8 5,7 10 5 19 10 S 1028,5 19 0 0,0
18.01.2021 11:00:00 2,3 0,8 0,2 1,8 5,7 9 5 14 8 S 1028,8 15 0 0,0
18.01.2021 10:00:00 1,5 0,3 0,1 1,8 5,8 4 2 11 6 SSW 1029,0 15 0 0,0
18.01.2021 09:00:00 1,3 0,3 0,1 1,8 5,8 9 5 16 9 S 1028,7 13 0 0,0
18.01.2021 08:00:00 1,3 0,1 0,1 1,8 5,7 11 6 18 10 SSW 1028,3 12 0 0,2
18.01.2021 07:00:00 1,3 -0,2 0,1 1,8 5,8 9 5 21 11 SSW 1028,1 19 0 0,0
18.01.2021 06:00:00 1,5 0,0 0,1 1,8 5,8 14 7 18 10 S 1027,5 19 0 0,0
18.01.2021 05:00:00 1,6 -0,7 0,1 1,8 5,8 8 5 21 11 SSW 1027,4 33 0 0,0
18.01.2021 04:00:00 3,1 0,2 0,1 1,8 5,8 16 8 20 11 WSW 1027,4 40 0 0,0
18.01.2021 03:00:00 2,0 -0,3 0,1 1,8 5,8 11 6 19 10 SW 1027,3 34 0 0,0
18.01.2021 02:00:00 2,8 0,5 0,1 1,8 5,8 14 8 24 13 W 1026,8 35 0 0,0
18.01.2021 01:00:00 3,2 0,9 0,1 1,8 5,8 14 8 22 12 WSW 1026,8 24 0 0,0
18.01.2021 00:00:00 2,8 1,2 0,1 1,8 5,8 16 9 21 11 WSW 1026,8 24 0 0,0
17.01.2021 23:00:00 1,9 0,3 0,1 1,8 5,8 8 4 14 8 SSW 1026,7 25 0 0,0
17.01.2021 22:00:00 2,3 0,7 0,1 1,8 5,8 8 4 14 8 S 1026,2 19 0 0,0
17.01.2021 21:00:00 1,6 0,3 0,1 1,8 5,8 9 5 17 9 SSW 1025,9 15 0 0,0
17.01.2021 20:00:00 1,9 0,4 0,1 1,8 5,8 16 8 20 11 SW 1025,5 25 0 0,0
17.01.2021 19:00:00 2,6 1,6 0,1 1,8 5,8 12 7 19 11 WSW 1024,8 15 0 0,0
17.01.2021 18:00:00 1,2 0,6 0,1 1,8 5,8 8 5 11 6 S 1024,4 6 0 0,0
17.01.2021 17:00:00 1,1 0,4 0,1 1,8 5,8 4 2 8 4 SSW 1023,6 2,5 0 0,0
17.01.2021 16:00:00 1,2 0,2 0,1 1,8 5,8 4 2 6 3 E 1022,8 2,4 0 0,0
17.01.2021 15:00:00 1,5 0,5 0,1 1,8 5,8 3 2 11 6 SSW 1021,2 3,2 0 0,2
17.01.2021 14:00:00 1,6 0,3 0,1 1,8 5,8 5 3 8 4 WSW 1020,8 8 0 0,2
17.01.2021 13:00:00 1,7 0,2 0,1 1,8 5,8 5 3 10 5 S 1020,6 9 0 0,0
17.01.2021 12:00:00 1,6 0,3 0,1 1,8 5,8 4 2 13 7 S 1020,5 9 3 0,0
17.01.2021 11:00:00 0,7 -0,2 -0,1 1,8 5,8 8 4 12 6 S 1020,5 4,5 0 0,0
17.01.2021 10:00:00 0,2 -0,5 -0,5 1,8 5,8 2 1 6 3 SSW 1019,9 3,5 0 0,0
17.01.2021 09:00:00 -0,6 -1,3 -0,6 1,8 5,8 0 0 6 3 N 1019,5 6 0 0,0
17.01.2021 08:00:00 -0,8 -1,5 -0,6 1,9 5,9 4 2 10 5 SSE 1018,6 7 0 0,0
17.01.2021 07:00:00 -0,8 -1,5 -0,7 1,8 5,8 6 4 14 8 SSE 1018,4 8 0 0,0
17.01.2021 06:00:00 -1,0 -1,7 -0,7 1,8 5,9 6 4 18 10 S 1018,4 3,0 0 0,0
17.01.2021 05:00:00 -1,1 -1,8 -0,7 1,8 5,9 8 5 21 12 SSW 1018,0 6 0 0,0
17.01.2021 04:00:00 -1,2 -1,9 -0,8 1,9 5,9 10 5 20 11 S 1018,1 3,0 0 0,0
17.01.2021 03:00:00 -1,2 -2,0 -1,0 1,8 5,8 10 6 19 10 S 1018,6 6 0 0,2
17.01.2021 02:00:00 -1,6 -2,3 -1,1 1,9 5,9 10 5 20 11 S 1018,6 2,6 0 0,4
17.01.2021 01:00:00 -1,7 -2,5 -1,2 1,9 5,9 11 6 18 10 S 1019,6 4,9 0 0,2
17.01.2021 00:00:00 -1,8 -2,5 -1,6 1,8 5,9 9 5 19 10 S 1020,5 3,9 0 0,2
16.01.2021 23:00:00 -2,0 -2,7 -2,1 1,8 5,9 9 5 19 11 S 1021,3 2,6 0 0,4
16.01.2021 22:00:00 -2,2 -3,0 -2,5 1,9 5,9 12 6 19 11 S 1022,3 1,3 0 0,2
16.01.2021 21:00:00 -2,4 -3,7 -2,8 1,8 5,9 12 6 22 12 S 1022,8 1,5 0 0,0
16.01.2021 20:00:00 -2,7 -4,1 -3,0 1,8 5,9 9 5 21 11 S 1024,1 6 0 0,0
16.01.2021 19:00:00 -2,9 -4,5 -3,0 1,8 5,9 12 7 23 12 S 1024,9 6 0 0,0
16.01.2021 18:00:00 -2,9 -4,3 -2,8 1,8 5,9 15 8 31 17 S 1025,9 7 0 0,0
16.01.2021 17:00:00 -2,8 -4,2 -2,6 1,8 5,9 14 7 25 13 S 1026,4 7 0 0,0
16.01.2021 16:00:00 -2,4 -4,1 -1,8 1,9 5,9 12 6 22 12 S 1026,7 9 0 0,0
16.01.2021 15:00:00 -2,2 -4,2 -1,3 1,8 5,9 13 7 24 13 S 1026,8 8 25 0,0
16.01.2021 14:00:00 -1,9 -4,2 -0,5 1,8 5,9 15 8 23 12 S 1027,5 8 19 0,0
16.01.2021 13:00:00 -1,5 -3,4 -0,6 1,8 5,9 13 7 21 11 S 1028,5 7 16 0,0
16.01.2021 12:00:00 -2,1 -2,9 -1,6 1,8 5,9 9 5 15 8 S 1029,2 5 0 0,0
16.01.2021 11:00:00 -3,1 -3,8 -2,9 1,8 5,9 6 4 11 6 SSW 1029,9 4,5 2 0,0
16.01.2021 10:00:00 -4,4 -5,2 -3,9 1,8 5,9 5 3 8 5 SSW 1030,3 3,8 0 0,0
16.01.2021 09:00:00 -5,7 -6,5 -4,3 1,8 6,0 2 1 4 2 WSW 1030,4 3,2 0 0,0
16.01.2021 08:00:00 -6,3 -7,2 -4,8 1,8 6,0 2 1 5 3 SW 1030,4 3,5 0 0,0
16.01.2021 07:00:00 -7,1 -7,9 -5,0 1,7 6,0 0 0 5 3 N 1030,5 1,2 0 0,0
16.01.2021 06:00:00 -7,7 -8,6 -4,8 1,8 6,0 5 3 9 5 SW 1030,8 1,0 0 0,0
16.01.2021 05:00:00 -7,0 -7,8 -4,9 1,8 6,0 3 1 7 4 WSW 1030,7 1,1 0 0,0
16.01.2021 04:00:00 -6,2 -7,0 -4,7 1,8 6,0 6 3 8 4 WSW 1030,5 0,2 0 0,0
16.01.2021 03:00:00 -6,1 -7,0 -4,2 1,8 6,0 4 2 4 2 S 1030,6 3,1 0 0,0
16.01.2021 02:00:00 -6,0 -6,9 -4,1 1,8 6,0 3 2 10 5 SSE 1030,3 4,0 0 0,0
16.01.2021 01:00:00 -7,8 -9,0 -4,3 1,8 6,0 5 3 9 5 ESE 1030,7 6 0 0,0
16.01.2021 00:00:00 -8,0 -9,2 -4,3 1,8 6,0 3 2 5 3 NW 1030,7 1,1 0 0,0
15.01.2021 23:00:00 -6,7 -7,6 -4,2 1,8 6,0 5 3 12 6 W 1030,3 3,4 0 0,0
15.01.2021 22:00:00 -6,4 -7,2 -4,0 1,8 6,0 6 3 8 4 W 1030,2 4,5 0 0,0
15.01.2021 21:00:00 -6,9 -7,8 -3,4 1,8 6,1 6 3 9 5 W 1029,9 0,5 0 0,0
15.01.2021 20:00:00 -6,4 -7,3 -2,7 1,8 6,0 8 4 26 14 NW 1029,4 0,4 0 0,0
15.01.2021 19:00:00 -5,6 -6,7 -1,4 1,8 6,0 6 3 13 7 N 1029,1 8 0 0,0
15.01.2021 18:00:00 -4,2 -5,6 -0,2 1,8 6,1 11 6 13 7 N 1028,4 10 0 0,0
15.01.2021 17:00:00 -3,5 -5,4 0,0 1,8 6,0 10 6 14 7 NNW 1027,6 11 34 0,0
15.01.2021 16:00:00 -1,7 -4,0 0,1 1,8 6,0 10 5 21 11 NNW 1026,5 8 60 0,0
15.01.2021 15:00:00 0,2 -2,7 0,1 1,8 6,0 9 5 18 10 N 1025,7 16 60 0,0
15.01.2021 14:00:00 0,4 -2,2 0,1 1,8 6,1 12 6 18 10 N 1025,0 13 60 0,2
15.01.2021 13:00:00 0,1 -2,3 0,1 1,8 6,1 13 7 21 11 N 1024,9 11 60 0,0
15.01.2021 12:00:00 -0,7 -3,1 0,1 1,8 6,1 13 7 21 12 N 1024,6 13 27 0,0
15.01.2021 11:00:00 -0,6 -2,7 0,1 1,8 6,1 15 8 21 12 NNE 1024,1 20 16 0,0
15.01.2021 10:00:00 -1,6 -3,6 0,1 1,8 6,1 13 7 21 11 N 1023,1 28 0 0,0
15.01.2021 09:00:00 -1,8 -3,4 0,1 1,8 6,1 14 7 24 13 NNE 1022,1 23 0 0,0
15.01.2021 08:00:00 -1,4 -2,5 0,1 1,9 6,1 16 9 24 13 NNE 1020,8 28 0 0,0
15.01.2021 07:00:00 -0,8 -1,4 0,1 1,9 6,1 16 9 26 14 NNE 1020,0 3,2 0 0,6
15.01.2021 06:00:00 -0,5 -0,9 0,1 1,9 6,1 17 9 26 14 NNE 1019,0 1,4 0 0,8
15.01.2021 05:00:00 0,0 -0,3 0,1 1,9 6,1 16 9 29 16 NNE 1018,4 1,3 0 1,0
15.01.2021 04:00:00 0,2 -0,1 0,1 1,9 6,2 16 9 34 18 NE 1017,7 1,3 0 1,0
15.01.2021 03:00:00 0,2 -0,1 0,1 1,9 6,2 18 10 24 13 NE 1017,2 0,4 0 1,2
15.01.2021 02:00:00 0,2 -0,1 0,1 1,9 6,2 15 8 21 11 NNE 1016,7 0,7 0 1,0
15.01.2021 01:00:00 0,2 -0,1 0,1 1,9 6,2 12 7 17 9 NE 1016,5 2,2 0 0,8
15.01.2021 00:00:00 0,2 -0,1 0,1 1,9 6,2 11 6 16 8 NE 1016,3 1,5 0 1,2
14.01.2021 23:00:00 0,3 0,0 0,1 1,9 6,2 10 5 16 8 NE 1016,4 0,9 0 1,0
14.01.2021 22:00:00 0,2 -0,1 0,1 1,9 6,2 8 4 12 6 NE 1016,8 1,4 0 1,1
14.01.2021 21:00:00 0,2 -0,1 0,1 1,9 6,2 9 5 12 7 NE 1017,0 1,7 0 1,0
14.01.2021 20:00:00 0,2 -0,2 0,1 1,9 6,2 6 3 9 5 ENE 1017,6 0,9 0 1,4
14.01.2021 19:00:00 0,2 -0,2 0,1 1,9 6,2 5 3 11 6 E 1018,0 0,9 0 1,0
14.01.2021 18:00:00 0,2 -0,2 0,1 1,9 6,2 5 3 8 5 E 1018,7 1,4 0 1,2
14.01.2021 17:00:00 0,2 -0,4 0,1 1,9 6,2 3 2 8 4 ENE 1019,4 1,0 0 1,2
14.01.2021 16:00:00 0,4 -0,2 0,1 1,9 6,2 6 3 8 5 NNE 1019,7 1,0 0 1,2
14.01.2021 15:00:00 0,4 -0,3 0,1 2,0 6,3 7 4 13 7 NNE 1020,0 1,2 0 1,0
14.01.2021 14:00:00 0,8 0,1 0,2 1,9 6,2 6 3 10 5 NE 1020,4 2,8 0 1,0

tt = temperature
td = dewpoint
tt 5cm = temperature 5cm
tt -20cm = temperature -20cm
tt -100cm = temperature -100cm
ff = wind speed
fx = gusts
dd = wind direction
ppp = reduced air pressure
vv = visibility
sd = sunshine duration
rr = precipitation

Next stations